GFSFLT2_850_rhum_003.txt.gz
RH
62 66 68 67 70 72 76 74 71 63 63 65 65 74 69 73 61 50 63 91 96 95 86 86 88 79 75
72 73 74 76 79 78 70 66 70 68 63 64 66 76 82 69 79 86 63 72 90 93 69 80 96 91 81
80 79 84 87 84 78 70 67 72 73 71 65 72 81 80 93 85 84 96 94 82 73 67 68 88 90 80
88 94 90 84 86 79 73 68 69 73 72 81 81 80 86 95 85 60 68 41 44 48 91 93 87 90 83
100 97 96 84 84 71 72 80 87 91 91 81 84 74 78 77 76 75 79 79 67 79 88 85 91 99 89
98 98 95 86 72 87 94 97 93 89 88 80 87 92 83 84 86 97 88 100 99 93 87 87 85 87 96
96 90 80 93 86 99 100 92 91 89 100 95 96 92 99 79 85 91 96 94 100 99 96 82 86 95 91
88 85 95 96 98 96 97 97 95 95 94 98 91 98 80 89 68 84 91 96 100 99 99 98 98 99 90
88 86 87 86 89 95 96 100 96 96 90 96 95 96 84 91 65 77 99 100 98 94 84 80 79 81 71
90 83 83 88 95 96 96 98 98 97 89 97 94 97 97 85 95 86 79 87 95 94 97 83 73 77 72
86 86 93 97 93 92 92 97 98 98 87 99 97 100 100 98 94 86 95 94 96 99 100 98 99 99 85
93 98 100 99 93 93 88 91 94 99 94 97 97 100 98 98 96 90 92 96 98 99 100 99 100 100 100
98 100 96 92 94 95 93 91 92 86 93 98 98 98 97 97 96 94 97 94 98 99 100 100 100 100 100
97 94 92 96 96 96 96 95 96 94 96 96 96 96 95 96 97 90 96 97 98 99 100 99 100 100 100
96 95 94 96 94 95 95 97 96 96 94 94 95 95 95 97 94 97 96 96 98 99 99 99 100 99 99
96 96 96 96 95 95 96 96 96 96 96 96 95 95 94 97 96 96 96 97 98 99 99 98 98 99 99
96 96 96 95 96 96 96 96 96 94 95 96 95 96 96 96 97 96 96 97 98 98 98 98 98 99 99

GFSFLT2_850_rhum_006.txt.gz
RH
65 64 76 75 66 78 85 85 82 75 73 71 67 68 69 68 67 73 88 88 87 90 87 87 94 99 98
81 80 76 77 85 80 87 91 80 72 67 68 66 68 71 75 73 70 82 93 100 100 99 100 99 98 100
87 84 94 91 85 89 95 87 76 67 67 76 79 81 80 86 81 83 90 96 99 96 98 96 85 91 94
98 96 92 82 96 91 85 74 73 84 76 92 87 83 86 86 82 83 85 82 88 92 99 86 92 80 96
98 98 97 96 94 87 83 83 76 85 98 72 86 82 68 78 95 90 93 95 96 98 94 97 94 84 82
100 88 80 80 98 97 94 100 96 90 88 93 96 88 94 92 97 98 99 92 92 93 95 100 97 61 76
82 80 96 94 95 98 98 100 99 97 97 100 94 98 87 70 89 99 95 96 89 94 100 95 100 99 74
82 97 97 98 98 96 97 95 95 99 99 99 93 90 84 86 95 98 97 96 98 94 94 97 97 99 99
98 98 87 85 90 95 96 100 98 98 94 96 94 99 94 94 87 97 98 97 98 100 99 99 81 82 87
87 68 68 78 99 96 96 97 98 99 91 100 98 99 98 85 92 88 92 91 99 96 100 95 87 80 70
70 79 94 100 98 96 97 98 97 99 82 100 97 95 100 99 88 100 91 84 94 96 98 100 100 99 79
100 100 100 98 94 92 93 94 98 98 96 97 97 100 97 97 98 78 77 93 98 97 98 100 100 100 94
100 98 97 94 93 94 92 92 90 94 96 98 98 98 94 90 94 83 96 90 97 98 99 100 100 100 100
97 96 95 97 97 97 96 94 96 95 94 95 96 96 90 87 98 93 96 96 96 98 100 100 100 100 100
97 96 96 96 95 95 96 96 98 97 94 93 96 97 90 95 96 96 96 97 98 98 99 99 99 99 100
96 97 97 96 95 94 95 97 95 95 95 96 94 92 93 94 97 96 97 97 98 98 98 99 99 98 99
96 96 96 94 95 94 95 96 94 95 96 96 96 96 94 96 96 97 97 98 98 98 98 98 98 99 99

GFSFLT2_850_rhum_009.txt.gz
RH
68 64 62 66 64 74 85 81 90 90 88 78 75 75 73 70 74 80 76 71 69 67 70 95 97 98 98
78 75 83 74 92 86 93 87 85 86 77 72 72 72 75 76 77 87 95 94 89 88 90 100 99 98 100
93 87 93 96 95 85 92 91 80 81 78 71 73 82 88 88 79 78 84 95 89 89 96 98 88 96 98
93 97 98 94 86 76 75 85 90 88 86 89 96 97 80 87 89 89 91 88 90 87 89 94 96 89 97
98 97 91 80 80 84 97 94 93 100 96 93 85 88 84 88 92 96 97 98 96 99 97 96 93 92 95
97 98 88 87 88 93 98 97 95 92 94 96 100 89 92 92 100 98 88 90 96 98 99 100 92 92 96
96 96 94 91 97 97 96 99 99 100 100 100 98 94 86 83 92 95 98 100 100 100 100 97 92 94 100
91 95 97 96 91 96 98 99 98 95 100 99 96 98 82 87 92 94 99 97 98 98 98 98 99 99 100
100 100 90 89 96 97 95 100 96 97 74 100 90 92 96 87 73 75 94 99 98 98 100 100 100 99 95
86 65 69 83 100 97 96 98 100 98 69 98 100 98 97 87 78 81 81 93 98 98 98 100 100 100 100
74 87 94 95 93 95 96 97 97 97 82 99 98 98 100 100 93 88 78 85 96 96 97 97 98 100 100
100 98 96 93 94 95 96 96 97 98 96 97 97 98 96 97 94 71 88 96 97 96 97 97 99 100 99
100 98 99 95 93 94 92 95 92 93 95 95 98 97 97 97 95 91 97 90 97 98 99 99 99 100 100
98 94 95 95 95 96 96 93 94 88 88 96 97 98 95 89 96 93 96 97 96 99 99 100 100 99 100
97 96 95 96 95 95 96 94 98 96 92 92 96 96 86 86 93 96 96 98 99 98 98 99 100 100 100
96 97 96 96 95 95 94 96 96 95 96 97 95 91 90 95 97 96 97 98 98 98 98 98 99 99 100
97 97 97 96 97 96 96 96 96 96 96 97 96 96 94 97 99 98 97 98 98 98 98 98 98 99 99

GFSFLT2_850_rhum_012.txt.gz
RH
73 67 75 73 71 83 97 96 90 82 79 78 79 82 83 82 80 76 74 80 82 87 84 84 76 75 78
79 79 84 66 94 98 86 76 79 75 77 79 81 73 75 77 81 82 83 97 96 90 85 90 92 94 90
86 76 74 95 97 87 80 72 59 66 82 85 86 86 87 95 96 95 85 83 86 91 87 88 88 86 86
95 96 94 95 83 82 74 75 73 92 97 95 88 91 91 89 89 91 93 92 91 94 92 85 84 92 90
94 95 97 83 85 84 91 86 97 88 78 86 93 94 89 90 87 94 98 98 96 95 95 96 97 95 96
97 98 93 94 92 96 98 96 90 88 90 97 100 94 89 84 95 100 97 95 99 93 95 98 97 98 100
89 94 99 94 98 99 99 100 100 97 100 100 80 100 84 85 89 100 100 98 98 99 100 100 99 99 99
89 97 98 94 94 99 97 99 98 88 98 98 79 89 79 77 72 73 86 100 100 100 99 98 99 100 100
100 94 92 95 98 96 94 100 98 96 73 100 83 93 95 77 70 73 83 100 97 97 100 100 98 97 97
78 67 68 77 100 99 96 98 100 99 74 98 96 98 97 87 83 86 84 75 100 99 99 99 100 99 94
74 79 85 89 91 95 97 98 97 98 80 98 98 96 100 98 94 83 80 75 96 96 96 96 97 96 96
96 97 94 92 94 95 95 96 96 97 95 96 97 99 98 99 100 74 74 86 96 96 97 97 98 97 98
99 94 96 95 94 94 90 92 93 94 95 96 97 96 98 96 96 83 95 84 97 98 98 98 99 99 98
96 93 94 94 94 96 96 93 95 87 88 97 96 98 95 92 92 93 97 97 97 98 98 98 99 99 99
95 96 94 95 94 95 96 95 96 96 92 90 94 97 95 95 95 97 96 98 98 98 97 98 99 100 100
94 96 96 98 96 94 95 96 96 96 96 95 94 92 93 94 98 98 98 97 98 98 98 98 98 100 100
95 96 97 94 97 95 96 96 93 98 96 96 96 96 94 97 97 98 98 98 97 98 98 98 98 98 100

GFSFLT2_850_rhum_015.txt.gz
RH
72 70 62 61 77 86 97 96 96 93 91 80 75 76 76 80 92 93 85 88 87 86 88 82 85 90 96
83 74 63 79 79 90 100 90 92 83 77 76 78 80 83 94 88 91 91 89 91 92 98 99 96 93 92
92 79 90 78 95 100 86 72 72 75 79 86 90 90 88 84 82 92 94 95 96 95 93 92 92 88 83
98 100 95 94 93 83 72 78 85 89 98 91 90 86 89 92 91 90 89 91 91 91 93 97 93 92 87
100 98 93 76 84 84 93 95 95 92 95 86 89 95 98 95 93 93 98 99 98 97 99 98 98 96 95
97 88 79 92 94 100 99 100 97 92 96 85 96 95 78 75 80 100 100 96 97 98 98 96 98 98 98
83 91 99 95 99 95 100 100 100 99 100 94 78 83 74 72 81 97 100 100 99 96 98 99 98 97 94
96 95 98 97 98 99 99 100 99 95 100 97 84 80 76 74 67 65 87 100 100 99 98 97 98 98 99
100 98 94 96 100 96 93 99 100 98 87 100 87 99 91 79 72 79 94 100 97 98 98 98 98 100 98
78 69 70 76 94 98 96 98 100 99 89 98 97 100 96 90 82 80 87 79 96 99 100 100 100 99 96
74 75 80 86 87 94 97 97 97 98 82 98 98 95 100 96 90 91 92 85 91 91 96 97 97 98 97
87 92 89 89 86 89 93 96 96 97 95 97 96 99 97 98 99 75 85 90 97 92 96 96 97 97 98
97 90 93 91 89 92 91 91 89 92 95 96 100 97 97 96 97 90 97 83 95 97 98 98 98 98 98
96 92 92 91 90 95 96 92 93 79 85 96 97 97 95 95 97 95 96 97 94 98 99 98 98 98 98
95 95 93 94 92 92 96 94 96 96 90 88 94 97 97 96 95 97 97 97 98 98 95 96 97 98 99
93 96 96 97 95 93 94 96 96 94 96 96 94 83 84 88 97 96 98 98 98 97 96 99 97 100 100
96 96 97 94 96 95 96 96 92 97 96 96 96 99 99 98 95 98 99 98 98 96 97 97 99 100 100

GFSFLT2_850_rhum_018.txt.gz
RH
74 70 63 74 71 82 93 99 93 95 97 97 89 78 75 80 82 89 92 93 95 96 91 92 94 97 97
79 76 72 72 75 90 99 95 70 65 82 80 78 80 80 85 94 94 94 92 94 91 94 90 90 91 87
91 77 79 99 97 80 73 73 81 82 84 88 89 90 90 92 88 92 95 96 98 94 94 96 95 97 98
92 97 97 84 81 75 83 88 94 98 97 95 97 92 90 90 92 91 91 91 91 93 93 94 95 94 92
95 94 91 84 87 82 100 100 99 100 93 83 87 91 86 86 87 93 99 100 97 94 96 99 98 98 97
97 98 93 89 91 100 100 100 97 94 98 88 90 92 80 78 79 100 100 99 96 96 98 99 97 98 100
88 90 98 96 100 96 99 100 100 99 100 92 85 86 78 75 86 100 100 100 100 98 98 99 100 98 97
95 94 98 98 99 100 98 98 98 95 100 96 87 84 81 78 68 76 98 100 100 99 99 99 99 97 96
100 100 89 85 98 97 93 100 98 91 84 100 89 100 88 76 73 80 100 100 100 100 99 98 99 98 96
80 73 70 72 81 95 100 97 100 97 72 98 94 98 95 88 82 80 80 83 91 100 100 100 100 98 96
76 74 76 80 85 88 94 98 96 96 80 99 96 96 100 96 81 75 93 94 95 94 97 97 97 98 97
86 86 86 85 87 87 88 90 95 97 95 98 97 98 97 95 99 78 90 88 95 93 96 96 96 97 97
96 88 88 89 87 89 86 89 86 88 95 97 98 97 97 96 97 90 97 88 89 97 97 97 96 97 96
97 91 91 89 88 93 94 94 92 79 81 94 98 98 96 94 97 95 96 97 96 96 98 97 97 98 98
96 94 91 92 90 94 96 96 98 94 84 80 86 92 92 96 93 94 97 97 99 98 97 100 97 97 97
93 96 95 96 99 95 98 100 98 90 96 94 90 82 68 67 90 97 100 100 99 97 97 98 97 100 100
97 95 96 97 99 98 99 98 91 94 96 93 95 100 100 98 77 98 97 100 100 99 97 97 98 100 94

GFSFLT2_850_rhum_021.txt.gz
RH
84 79 91 93 90 96 100 100 96 92 90 90 90 87 84 82 84 86 85 87 86 89 94 97 98 98 99
90 90 87 94 98 100 97 89 84 81 86 91 92 91 90 90 91 90 94 93 96 93 92 94 94 95 91
90 81 97 100 95 86 81 78 84 90 91 96 96 98 99 96 94 90 93 93 92 90 93 96 96 94 93
98 97 95 85 81 83 87 86 95 98 89 99 98 97 97 97 99 99 98 96 94 92 93 98 99 96 94
99 98 91 86 86 91 98 98 96 97 90 96 92 89 90 96 99 100 100 100 100 98 97 97 96 98 96
100 93 88 89 94 100 100 100 98 96 98 99 96 91 90 84 97 100 100 100 99 98 99 99 98 98 97
92 91 98 96 99 98 98 99 100 97 100 98 82 95 81 80 83 100 100 100 100 100 100 100 100 100 96
98 95 97 99 100 100 98 96 94 86 100 100 92 95 83 76 64 78 99 100 100 100 100 100 99 99 99
100 100 89 82 85 100 96 100 99 92 75 100 98 100 85 66 62 74 99 98 98 99 100 100 100 99 98
90 75 73 71 77 96 97 98 100 99 76 99 97 100 96 79 75 70 81 91 98 100 100 99 100 99 97
76 73 75 80 83 87 94 97 96 96 80 100 97 91 100 98 73 69 80 92 96 94 96 97 97 98 98
86 82 87 84 85 84 87 90 94 96 94 98 96 99 96 95 100 76 81 86 92 94 96 96 96 97 98
100 90 90 88 86 86 84 88 86 83 94 97 98 96 100 100 99 90 98 89 87 97 96 96 97 95 96
100 91 89 90 88 91 92 94 91 75 77 94 96 98 95 82 96 81 87 100 96 96 98 98 98 98 98
96 92 91 93 86 89 96 96 95 90 80 80 87 91 78 76 80 82 97 98 97 97 97 99 98 99 99
94 96 96 94 95 93 96 97 96 89 89 91 94 86 75 66 79 93 95 100 97 97 98 100 99 99 100
95 93 94 96 98 95 96 95 92 92 95 95 98 99 100 100 71 88 98 96 99 97 98 98 99 99 100

GFSFLT2_850_rhum_027.txt.gz
RH
71 72 74 76 76 75 79 73 77 75 76 79 84 89 91 93 95 95 98 100 99 99 97 97 98 97 98
78 80 82 78 81 87 80 89 72 69 73 81 87 90 92 95 95 98 96 97 97 98 99 100 99 98 98
82 82 82 84 89 94 75 73 68 72 78 82 88 92 95 92 93 94 94 95 96 96 95 98 98 97 95
85 79 92 97 91 76 71 73 81 81 81 77 88 89 91 89 93 96 98 99 100 100 96 98 98 98 99
94 99 100 89 80 76 80 91 76 86 98 59 89 74 72 85 90 95 96 98 98 99 99 100 100 100 99
100 99 91 89 81 88 83 100 98 81 95 81 74 72 81 77 91 95 98 100 100 100 100 100 100 100 100
95 92 88 87 80 89 96 100 96 84 94 92 70 77 76 69 76 97 97 94 92 100 100 100 100 99 100
86 89 85 90 97 98 97 93 83 77 100 98 82 79 83 81 61 58 59 89 99 100 100 100 100 100 97
91 97 100 97 95 94 89 91 96 83 96 100 93 98 81 66 63 73 69 73 65 78 95 100 100 100 99
90 88 93 89 98 94 96 98 96 96 86 98 95 100 96 85 76 66 59 61 66 65 74 94 98 98 98
90 90 88 91 100 100 100 100 96 94 76 100 99 97 100 99 81 68 70 66 68 69 72 77 92 98 98
96 97 100 98 93 92 88 92 99 100 83 97 97 100 98 99 99 74 71 67 69 73 81 87 97 98 96
98 100 98 96 92 89 87 90 95 81 80 86 100 100 100 99 100 92 98 81 67 87 98 97 98 96 98
94 93 96 94 90 91 96 91 100 79 76 84 96 99 98 96 100 100 100 100 95 100 100 95 86 95 98
97 97 95 97 89 89 93 100 100 100 86 76 85 99 99 98 96 88 98 98 89 100 99 96 81 86 98
97 97 100 96 94 92 97 99 100 100 100 90 99 95 88 98 95 96 95 90 91 96 100 100 96 78 97
98 96 96 95 96 93 96 100 100 100 89 99 100 98 98 97 80 93 97 91 93 100 100 100 100 82 97

GFSFLT2_850_rhum_030.txt.gz
RH
62 75 80 81 74 82 67 70 80 72 88 85 82 85 86 89 91 93 97 99 100 99 99 99 99 98 99
86 85 85 84 74 70 72 80 70 71 82 79 85 89 90 92 96 94 94 94 96 98 98 99 99 99 98
86 86 76 73 78 85 81 76 76 75 78 86 85 94 97 94 94 92 93 94 97 99 99 98 99 99 99
90 93 98 79 97 90 84 82 80 69 70 75 79 86 71 90 85 86 98 100 100 99 99 99 99 99 100
100 100 98 98 89 92 92 82 73 71 89 97 69 61 59 59 62 63 97 100 100 100 100 100 100 100 100
98 100 89 95 94 95 86 80 100 92 98 82 64 59 64 66 69 94 99 100 100 100 100 100 100 100 100
94 90 94 94 94 91 91 98 99 87 89 96 62 69 70 74 68 66 98 98 100 100 100 100 100 100 100
96 94 94 94 97 98 98 99 87 73 75 100 78 90 72 75 67 61 62 76 100 100 100 100 100 100 100
93 99 100 100 100 99 94 100 95 92 84 100 89 94 80 71 64 69 71 90 76 75 91 100 100 100 100
88 77 72 75 82 91 99 99 97 100 85 100 95 99 97 88 78 70 63 65 69 71 69 73 80 95 96
84 76 78 79 83 88 99 100 99 99 76 100 97 97 100 96 82 73 72 66 71 69 63 63 72 90 100
88 84 87 86 86 88 89 89 90 96 87 92 97 100 98 96 95 80 74 73 78 76 73 72 75 79 98
93 88 88 87 87 86 83 85 88 80 80 86 100 97 99 100 100 91 90 80 75 82 90 84 91 94 100
94 87 86 89 88 90 94 93 98 81 78 84 93 100 97 97 100 100 83 100 90 91 96 92 86 89 92
93 93 91 93 91 93 94 99 100 96 82 75 83 94 93 96 96 83 90 94 90 93 100 100 90 88 90
94 96 96 97 96 94 98 98 100 94 94 86 91 90 87 97 96 95 92 92 91 100 100 100 92 79 84
96 96 97 96 98 94 95 98 96 95 88 90 97 100 98 97 81 95 96 94 98 95 100 100 100 90 84

GFSFLT2_850_rhum_033.txt.gz
RH
43 45 54 53 50 55 58 61 59 60 89 94 93 91 90 90 92 95 92 98 98 98 99 98 99 99 99
62 64 69 65 67 69 72 67 64 58 80 92 89 93 94 97 97 99 97 92 98 99 98 98 98 99 98
83 83 83 73 76 82 90 69 66 64 82 78 74 73 91 99 97 96 95 96 95 99 100 100 99 99 100
93 91 84 82 91 92 82 73 73 68 68 69 62 63 75 65 60 62 65 98 100 100 100 99 99 100 100
94 89 99 98 88 82 92 86 76 71 71 82 75 71 53 54 58 60 60 99 100 100 100 100 99 98 99
96 99 94 88 87 94 92 86 100 80 96 85 72 66 54 61 64 80 94 100 100 100 100 100 100 100 100
92 87 95 92 94 92 94 99 99 86 84 87 72 76 66 70 71 65 63 90 99 100 100 100 100 98 100
98 99 99 95 98 98 98 98 94 82 80 99 84 86 80 73 66 61 60 66 98 100 100 100 100 100 100
79 97 100 100 98 100 94 97 91 88 79 100 84 86 91 72 66 68 72 80 82 70 96 100 100 100 100
88 82 75 74 76 86 93 100 98 100 82 100 93 93 100 89 83 74 69 67 67 70 74 82 98 100 100
84 74 74 74 78 82 87 99 100 100 79 100 96 95 100 100 84 75 73 69 70 67 68 72 80 94 100
81 78 80 79 81 83 85 88 89 90 82 89 96 99 97 96 94 76 76 74 75 70 70 70 74 76 89
85 84 88 88 85 84 85 84 84 76 77 86 97 96 98 99 100 90 86 75 72 73 81 79 88 85 87
93 90 88 89 87 87 88 88 91 73 73 82 89 98 96 96 100 99 82 98 77 79 90 90 86 82 80
96 95 93 93 88 86 89 94 98 94 82 72 79 90 92 92 94 80 79 82 80 86 96 99 85 83 82
94 95 96 94 92 89 96 98 98 91 89 83 88 88 83 88 96 91 87 89 86 98 100 100 100 98 98
95 96 96 94 97 93 93 97 95 92 86 89 100 98 98 99 78 96 96 92 96 93 92 100 100 96 93

GFSFLT2_850_rhum_036.txt.gz
RH
37 36 40 37 32 34 37 42 42 48 46 97 98 97 94 94 92 93 96 97 98 100 99 98 100 98 99
55 55 55 48 52 50 46 42 46 44 50 94 97 97 97 98 100 100 99 99 99 94 95 98 99 94 99
76 76 80 67 65 58 59 46 50 53 56 58 64 70 94 99 100 100 98 97 95 96 97 96 100 100 100
80 90 88 73 72 77 72 57 67 61 61 64 67 70 61 70 70 59 57 56 78 99 100 99 99 100 100
95 94 87 86 82 75 79 77 79 77 63 72 68 67 60 60 60 60 58 58 99 100 100 100 98 99 100
94 95 90 84 80 81 94 93 100 78 76 85 71 70 68 65 62 60 64 99 100 100 100 100 100 100 100
95 92 86 80 89 93 96 100 99 77 78 86 75 70 65 67 63 61 60 81 100 100 100 100 100 100 99
87 85 90 92 97 99 98 94 87 76 76 98 76 72 73 68 62 57 59 61 64 97 100 100 100 100 100
84 97 100 100 99 98 84 94 88 82 73 98 80 89 80 67 61 62 64 67 72 75 87 99 100 100 98
89 82 79 73 77 84 91 100 97 100 82 98 90 90 99 86 77 74 68 66 67 69 72 78 100 100 100
80 72 74 74 77 80 85 94 98 99 82 100 96 92 100 97 87 73 74 71 71 67 66 69 75 97 100
79 78 80 78 78 80 81 85 89 88 82 90 96 96 99 96 96 79 78 76 74 68 70 66 72 79 98
84 85 88 85 81 81 81 80 80 75 77 82 94 95 99 100 100 89 83 74 73 70 72 76 81 85 86
91 88 86 86 86 87 86 86 88 74 73 79 84 94 95 95 100 92 78 99 74 72 78 85 85 87 90
92 88 90 92 88 87 88 92 97 89 79 70 76 86 89 91 94 81 77 77 74 82 94 95 93 91 90
92 95 96 96 95 91 96 95 93 87 85 80 86 88 81 85 97 90 80 87 86 94 100 100 100 96 86
93 94 96 98 99 93 93 95 94 92 89 90 96 98 97 99 82 97 97 94 97 92 89 94 100 87 84

GFSFLT2_850_rhum_039.txt.gz
RH
33 31 30 32 28 27 29 32 29 28 26 29 78 99 100 100 99 98 95 99 100 100 98 100 99 99 98
39 40 46 46 45 48 43 39 35 28 31 40 94 99 99 100 100 100 99 100 100 100 100 100 99 99 96
53 61 65 67 67 60 56 44 38 35 42 50 58 61 95 100 100 100 100 98 100 100 98 96 97 96 98
69 74 86 80 78 72 69 62 52 57 48 56 63 64 68 61 64 61 64 70 94 99 100 100 99 100 100
85 92 90 89 86 82 80 64 77 73 53 62 74 66 58 56 59 58 56 55 70 100 100 100 100 100 100
94 96 97 94 91 82 84 90 99 82 73 70 74 66 61 63 58 56 56 59 95 100 100 100 99 99 100
98 94 92 86 91 93 95 99 100 88 79 76 76 66 62 63 58 57 56 56 85 100 100 100 100 100 100
88 84 91 95 97 99 99 97 89 78 76 94 76 69 74 62 56 55 56 60 65 84 100 100 100 100 100
74 84 86 99 100 90 81 88 88 84 73 89 74 86 80 65 60 59 63 67 69 74 82 99 100 100 99
73 63 65 69 76 83 88 98 99 100 83 94 88 92 98 83 80 78 71 66 65 66 69 72 93 100 100
64 70 73 74 78 81 85 92 97 100 79 100 96 97 100 97 91 78 72 68 68 64 64 69 75 89 100
79 77 79 78 79 81 84 85 88 90 80 89 98 98 99 95 94 78 75 74 72 67 70 67 70 75 88
80 80 86 85 84 82 78 80 79 77 78 84 95 96 98 98 100 90 82 73 76 72 71 74 77 80 81
87 87 88 87 84 88 87 86 85 74 76 80 85 95 97 96 100 89 78 98 71 70 76 82 86 87 84
89 91 89 89 87 89 91 92 96 89 79 75 82 90 92 92 93 81 78 77 72 76 87 92 86 85 86
93 93 92 92 91 90 98 98 94 90 87 82 86 88 80 79 92 88 80 85 79 89 100 100 99 100 94
92 92 95 96 98 94 95 96 93 90 86 88 94 98 98 100 76 94 96 93 97 94 89 94 97 88 85

GFSFLT2_850_rhum_042.txt.gz
RH
47 29 27 27 30 30 25 27 27 25 21 20 22 82 100 100 100 100 100 100 100 99 100 99 100 100 98
31 31 34 34 35 30 37 42 46 32 24 19 51 87 92 99 100 100 100 100 100 100 100 100 100 99 100
45 47 49 40 48 56 59 55 42 37 26 40 54 57 55 93 100 100 100 100 100 100 100 100 100 98 96
55 62 61 64 71 78 72 65 60 48 42 56 63 60 56 59 59 58 59 60 85 100 100 100 100 100 100
71 71 74 75 84 87 90 74 80 69 54 56 58 57 52 54 57 56 57 57 69 100 100 100 100 99 99
74 88 88 88 94 90 90 91 93 80 71 58 68 61 58 60 58 57 59 61 73 100 100 100 100 99 100
86 89 94 95 94 95 91 94 96 86 79 69 75 64 61 62 61 62 59 56 60 91 100 100 100 100 100
84 86 89 96 99 100 100 91 85 79 77 87 72 69 74 64 62 59 58 61 63 67 100 100 100 100 100
58 60 65 66 76 80 79 91 88 85 78 91 71 82 76 68 65 64 63 67 70 72 73 81 96 100 100
43 48 62 71 76 83 88 94 97 100 89 99 85 88 98 83 77 75 65 62 64 64 65 68 70 100 100
55 69 69 72 74 76 82 92 98 96 78 100 92 90 100 98 80 72 68 66 66 62 63 66 73 81 100
73 72 74 76 78 81 82 84 88 88 79 90 96 95 98 94 90 73 73 73 71 68 71 70 70 74 83
75 76 83 85 81 80 78 84 83 78 81 87 96 95 98 98 99 91 87 71 77 74 74 74 74 75 77
84 83 85 83 82 89 87 87 84 72 77 82 91 97 95 94 98 88 78 98 71 73 80 79 82 84 83
86 86 87 90 87 89 90 89 94 88 76 73 81 88 88 86 89 80 81 78 77 78 92 94 79 79 81
88 91 93 93 89 85 93 92 90 85 83 80 82 86 80 78 86 87 82 86 80 93 100 100 100 86 82
90 94 97 94 94 86 87 90 87 86 85 88 91 99 99 100 80 98 96 93 94 88 88 93 99 80 84

GFSFLT2_850_rhum_045.txt.gz
RH
96 100 98 85 38 26 29 29 28 25 23 19 20 21 76 96 96 96 95 100 100 100 100 100 99 100 99
98 98 73 29 25 28 24 29 33 32 27 18 16 28 41 58 97 100 100 100 100 100 100 100 100 100 100
92 41 33 34 36 34 37 36 35 27 17 22 32 44 48 52 97 99 98 98 100 100 100 100 100 100 100
45 52 54 47 46 46 46 51 52 33 29 45 54 53 52 53 56 56 58 59 66 96 100 100 99 100 100
64 58 54 49 61 84 92 82 83 51 55 49 50 52 50 53 54 54 54 55 55 75 100 100 100 99 100
63 54 67 68 92 96 97 100 97 77 68 78 81 62 57 58 57 56 55 55 62 99 100 100 100 100 100
66 78 96 91 74 75 88 100 100 86 79 82 64 61 60 57 55 54 52 55 58 80 100 100 100 100 100
87 75 59 70 98 99 94 96 89 72 79 98 62 71 71 61 55 54 56 60 62 71 99 100 100 99 98
44 46 58 59 70 80 79 89 88 75 78 87 76 92 75 62 61 62 62 64 65 67 68 72 96 100 100
35 40 61 69 74 82 87 90 92 94 89 94 84 96 100 80 72 69 63 64 64 67 69 71 72 97 100
50 65 68 71 76 80 84 88 88 84 79 100 85 87 100 96 77 70 68 66 68 66 67 70 74 79 92
69 69 72 75 76 79 79 84 91 88 82 96 94 96 100 96 89 73 72 70 73 71 72 71 72 76 81
76 77 80 79 80 80 79 81 79 79 82 85 90 92 96 95 94 81 82 70 72 72 73 75 74 77 76
84 82 81 81 80 84 82 81 76 69 72 76 84 94 94 90 95 79 74 96 70 72 80 79 80 81 80
84 82 82 84 84 84 83 83 87 80 73 74 83 87 87 84 83 74 79 77 76 81 95 87 74 76 82
86 86 87 89 88 83 88 92 87 81 81 80 83 86 82 84 84 80 89 87 83 93 100 100 93 88 88
88 87 89 91 93 91 92 89 86 83 80 82 87 99 98 100 86 97 95 93 100 90 90 95 96 76 86

GFSFLT2_850_rhum_048.txt.gz
RH
86 92 96 99 100 99 99 81 36 26 18 12 12 12 14 14 36 89 97 95 97 95 93 98 100 100 100
100 100 99 99 100 94 50 31 24 19 16 18 16 13 16 21 48 96 96 99 96 100 100 100 100 100 100
100 99 98 80 38 36 30 31 26 29 23 14 16 23 32 37 47 74 92 96 96 96 96 99 99 100 100
98 83 48 37 38 46 77 83 82 73 36 28 40 41 41 43 45 46 48 50 52 80 98 100 100 100 100
53 78 95 90 83 84 90 88 80 62 69 83 88 85 84 62 47 46 47 50 52 55 96 100 100 100 100
88 91 88 85 87 90 93 93 91 78 95 96 88 82 66 53 50 51 52 53 56 94 98 100 100 100 100
94 87 88 92 94 69 99 98 100 94 98 93 74 90 70 70 58 54 54 54 56 58 83 99 100 100 100
91 93 96 95 97 97 98 100 99 95 98 96 86 92 82 68 54 52 52 56 56 58 74 100 100 100 99
46 40 40 39 49 77 78 100 100 96 93 90 79 99 78 61 56 57 58 58 60 64 68 73 84 100 100
72 42 46 64 68 72 78 87 95 87 92 82 76 100 100 77 79 78 68 67 68 68 66 67 70 95 91
47 65 66 69 74 79 81 82 79 81 80 100 84 87 100 100 75 77 71 67 73 68 70 70 74 80 86
68 70 72 74 75 76 77 82 87 84 79 92 95 88 92 90 88 72 75 68 71 68 68 69 71 71 75
71 72 74 71 72 76 77 79 78 73 74 78 86 88 93 94 94 86 80 66 65 70 74 74 79 84 84
77 76 74 74 75 81 79 79 76 70 72 73 79 84 86 84 97 88 74 98 72 73 83 86 86 87 90
85 84 82 81 81 84 83 82 84 77 70 74 81 86 88 87 87 79 79 81 82 84 99 97 90 87 83
90 88 85 83 82 84 88 91 92 83 78 77 80 86 83 85 93 85 93 94 86 99 100 100 96 94 86
89 90 90 88 87 87 90 93 90 89 82 83 100 100 100 99 97 97 100 92 89 100 100 100 100 77 88

GFSFLT2_850_rhum_051.txt.gz
RH
86 87 88 88 89 94 99 99 99 99 84 35 16 10 9 10 9 13 16 65 94 97 95 95 92 98 97
100 98 100 100 100 99 98 97 77 38 20 11 10 13 11 10 12 17 37 91 96 98 96 98 100 100 100
99 100 100 99 99 97 88 46 24 26 28 31 21 14 17 26 33 43 69 84 92 96 98 99 99 100 100
99 98 97 82 50 34 39 66 68 36 35 33 24 36 41 45 42 45 46 47 50 66 91 99 98 100 100
88 52 48 74 84 79 80 71 57 28 61 40 63 53 52 45 48 54 60 79 94 96 100 100 100 100 100
44 82 73 82 82 84 83 74 44 52 78 56 64 60 51 51 54 59 74 88 86 96 99 100 100 100 100
64 83 85 84 86 70 68 72 70 58 82 53 60 66 54 53 54 55 57 60 66 65 70 98 100 100 99
71 64 78 85 88 91 92 77 70 78 98 79 62 64 56 54 54 54 53 58 60 60 61 76 98 100 100
49 42 35 33 34 34 49 73 73 68 67 82 67 84 64 52 51 52 58 63 64 65 64 66 83 100 100
59 65 41 47 60 64 65 70 83 90 91 82 80 86 96 60 62 63 57 55 60 66 66 64 81 100 100
57 61 72 72 72 71 73 78 80 78 73 97 78 78 94 86 62 63 68 64 62 65 65 65 69 89 100
63 67 71 74 73 72 73 77 80 77 76 85 89 81 86 87 83 66 67 68 67 64 64 67 74 79 87
71 78 81 76 74 72 73 74 75 73 73 77 81 81 87 88 90 77 74 61 63 65 71 79 82 85 98
77 77 76 76 73 72 73 75 76 70 72 76 77 96 98 96 100 91 79 100 75 71 82 86 89 84 88
78 77 77 77 74 75 76 78 84 78 73 77 78 90 99 100 99 84 87 92 92 90 97 100 93 92 86
81 83 84 84 84 83 84 85 86 84 81 74 85 100 98 98 98 99 100 99 93 98 100 100 93 87 88
82 83 86 86 89 88 87 88 86 88 88 89 98 100 100 99 90 97 100 100 91 89 84 91 98 82 92

GFSFLT2_850_rhum_054.txt.gz
RH
96 98 99 94 96 95 99 99 98 100 98 97 96 67 33 15 8 9 14 50 82 93 94 96 95 94 93
98 99 95 97 99 99 100 99 98 94 88 59 38 17 12 23 19 22 49 69 86 97 98 100 100 100 100
100 99 98 98 98 99 96 94 86 61 30 34 20 18 16 15 32 56 65 75 86 97 98 98 99 100 100
100 100 100 100 97 72 41 36 32 32 36 24 18 24 24 40 48 59 58 59 89 98 99 98 98 100 100
92 94 84 51 45 52 51 54 36 34 35 15 37 42 45 47 48 50 53 80 97 97 100 100 100 100 100
53 34 45 56 66 70 66 56 41 30 43 30 54 46 46 49 50 51 58 68 90 98 100 100 100 100 100
42 46 48 76 77 71 71 66 47 42 63 46 55 48 51 51 53 57 58 57 56 58 60 81 98 100 100
32 33 46 54 62 56 50 42 36 53 68 56 52 53 52 50 52 53 55 57 59 59 64 83 100 100 100
52 43 40 38 36 36 33 44 56 54 59 65 57 62 55 49 51 51 51 60 64 63 63 89 100 100 100
45 45 42 37 46 64 64 63 68 66 68 75 73 82 78 53 55 54 54 58 56 62 65 64 76 100 100
40 36 48 61 63 65 66 69 70 73 69 91 73 77 91 85 54 47 58 58 57 54 58 65 66 72 95
39 60 62 64 65 65 67 71 73 75 75 86 90 82 86 86 77 56 60 59 56 50 56 67 71 74 76
64 67 69 70 70 70 70 69 68 69 72 77 84 83 94 97 99 81 87 65 60 60 62 72 74 73 71
69 71 74 76 75 76 75 75 73 65 68 75 82 93 100 100 100 97 77 98 68 67 79 77 70 69 74
70 73 76 78 79 82 84 85 88 76 71 72 82 96 100 100 97 79 77 82 85 90 89 87 86 82 74
74 79 80 81 83 82 85 87 86 80 80 80 90 100 100 82 90 84 92 94 86 89 93 95 88 84 78
81 82 84 88 92 92 93 93 89 90 88 94 100 100 100 100 88 90 100 88 76 80 79 79 88 78 80

GFSFLT2_850_rhum_057.txt.gz
RH
100 99 99 95 100 100 97 100 100 100 97 100 100 100 100 96 67 52 52 63 56 72 85 95 96 95 95
98 96 100 97 100 100 100 98 100 99 99 99 98 93 68 54 67 47 46 34 61 96 99 100 100 100 98
100 100 100 100 100 100 98 98 99 99 98 89 62 61 44 29 27 38 65 79 93 98 98 99 100 99 100
100 100 100 99 100 100 100 98 80 52 51 41 41 32 21 27 36 46 46 46 52 80 92 98 97 99 100
98 98 99 99 91 71 59 53 45 52 41 28 24 25 39 47 48 49 49 50 55 81 95 96 98 100 99
92 76 66 66 63 62 62 70 63 55 31 22 38 44 49 50 50 51 52 54 56 76 89 94 100 100 100
36 42 48 51 55 66 77 72 60 36 39 36 48 46 52 51 54 55 56 54 55 56 58 80 100 100 100
29 40 46 56 60 60 51 38 29 27 54 52 48 49 53 53 51 51 52 54 58 60 60 64 77 97 100
63 56 47 46 47 38 31 34 45 56 59 64 62 56 51 49 53 56 53 53 60 59 57 58 69 96 100
52 39 40 39 39 47 60 65 72 70 72 72 70 67 58 49 52 54 51 50 60 62 60 58 56 69 75
28 37 39 57 68 74 76 74 74 80 79 81 69 76 88 71 49 48 42 50 57 57 57 56 64 71 84
34 53 67 69 69 69 72 71 71 71 72 83 81 81 94 99 79 46 46 50 57 56 58 60 66 72 77
66 68 69 69 70 71 71 70 69 68 71 78 85 87 97 94 90 56 62 51 54 60 62 66 67 66 66
68 69 71 71 73 74 74 74 73 67 71 76 82 92 98 97 99 68 65 86 59 59 70 69 68 67 70
72 71 74 75 75 77 80 80 81 78 72 73 80 92 100 100 99 78 71 71 71 68 75 77 71 68 69
73 76 78 78 79 80 83 85 86 84 84 83 84 88 93 90 89 75 78 82 72 76 81 83 77 67 72
75 76 78 78 80 82 86 91 90 90 87 88 93 100 100 100 80 87 91 83 82 77 74 78 83 75 80

GFSFLT2_850_rhum_060.txt.gz
RH
99 96 97 98 98 97 98 100 100 100 100 100 100 100 100 99 100 99 99 95 94 97 95 95 97 95 95
100 100 100 100 99 100 98 100 100 100 100 100 100 99 99 99 98 98 98 97 89 95 96 98 99 99 100
100 100 100 100 100 98 100 100 100 100 99 99 98 98 99 92 83 67 70 92 97 99 97 96 97 98 100
99 98 100 100 99 100 99 99 99 98 95 76 53 45 42 38 30 25 29 39 53 52 72 91 94 96 98
99 99 100 98 98 99 99 94 72 58 51 42 39 35 24 25 30 40 45 47 47 49 79 98 100 100 100
97 97 94 83 72 63 62 54 53 47 40 32 32 20 32 41 46 47 48 50 52 54 63 83 99 100 100
41 48 56 54 52 52 54 62 62 63 39 18 33 45 52 52 53 54 55 56 56 55 53 54 72 97 100
37 45 48 53 57 60 63 59 47 36 34 39 48 48 53 55 52 51 54 53 52 52 54 55 54 54 88
56 64 65 66 84 56 50 45 35 51 62 61 54 52 50 49 49 52 54 57 53 50 60 61 58 55 49
51 51 38 41 49 45 52 63 69 61 64 70 61 60 52 51 54 54 56 58 49 57 60 59 57 54 46
27 30 40 44 58 67 71 72 74 75 75 76 68 71 70 60 50 51 53 47 48 52 59 59 58 58 53
30 36 58 66 67 68 69 74 75 75 80 88 95 93 97 83 57 49 53 50 53 52 54 60 62 61 66
62 68 70 72 74 74 73 73 75 75 80 84 86 97 100 100 92 58 60 48 56 55 62 62 62 61 58
69 69 70 70 72 74 72 73 72 70 80 84 86 95 100 100 100 74 66 72 57 59 66 65 62 60 60
71 69 69 71 71 73 74 75 76 75 73 80 88 92 90 96 99 82 69 66 64 61 69 67 60 55 58
70 72 72 73 72 73 76 79 82 81 80 82 87 88 83 76 80 74 76 75 69 71 74 79 62 53 59
71 74 76 77 77 75 78 85 86 85 83 83 86 91 97 92 79 83 89 87 91 83 82 79 74 64 67

GFSFLT2_850_rhum_063.txt.gz
RH
99 100 99 100 100 99 100 100 99 100 99 100 100 100 100 99 100 100 100 98 98 98 98 99 98 99 95
100 98 98 98 98 99 100 99 100 100 99 100 99 98 98 98 100 100 100 99 99 97 79 83 95 97 95
97 99 100 100 100 98 100 98 99 100 100 100 99 98 99 100 99 100 100 91 63 75 81 84 90 96 97
97 99 99 99 100 100 100 99 99 99 100 98 96 93 88 83 71 48 40 31 28 31 38 48 62 85 98
100 98 98 99 100 100 99 100 99 89 76 61 51 43 38 33 25 21 23 27 34 40 44 55 98 100 100
93 96 95 94 87 80 72 63 54 48 38 32 32 25 22 17 16 20 32 42 44 46 51 72 87 96 98
26 30 34 37 39 37 44 49 52 46 37 19 19 14 22 30 40 44 45 48 51 54 55 54 66 77 76
32 33 32 30 32 33 33 34 35 33 32 21 25 44 51 50 50 50 53 57 58 54 49 46 47 50 50
54 56 54 56 60 50 49 46 34 32 49 58 50 49 51 51 51 51 52 54 56 55 53 47 45 52 52
50 51 50 42 47 56 53 54 67 62 63 68 64 61 52 48 49 58 59 56 56 58 49 48 53 55 52
26 27 31 41 46 59 70 74 73 72 71 73 73 73 68 56 53 63 63 58 60 58 55 56 56 60 56
30 34 45 62 67 69 70 70 70 70 72 79 89 83 91 73 64 47 52 51 55 54 57 57 63 65 65
46 63 68 68 70 71 71 69 69 70 75 80 88 93 100 88 72 59 63 49 54 51 56 62 64 63 60
70 71 70 69 67 68 69 70 69 71 86 90 91 95 98 96 98 69 69 74 60 62 61 60 61 62 60
70 69 69 73 73 76 76 77 77 74 74 85 92 94 94 93 90 78 74 74 70 66 68 64 58 56 56
55 70 72 74 72 74 78 80 78 76 79 83 87 91 89 80 82 77 78 77 74 76 78 82 70 61 62
41 54 66 70 73 72 72 73 74 76 74 79 86 91 97 95 82 84 86 80 79 76 75 74 73 54 58

GFSFLT2_850_rhum_066.txt.gz
RH
89 98 99 100 99 96 97 95 97 97 99 98 99 100 98 99 100 100 98 99 99 100 99 98 98 98 99
88 89 91 92 90 97 100 99 98 100 100 98 99 99 100 99 99 99 99 100 100 98 97 98 98 97 98
87 85 90 97 96 98 99 99 99 99 99 98 99 100 100 100 100 99 100 99 97 97 95 64 58 77 96
97 98 99 99 99 99 99 100 99 98 99 98 99 98 98 97 97 99 98 93 72 40 24 22 25 43 91
91 94 95 98 99 99 99 99 99 96 91 86 80 72 62 52 43 37 34 33 26 22 22 32 41 76 100
62 64 56 59 63 63 62 60 56 50 44 39 36 32 29 23 21 21 19 19 22 34 42 66 100 100 100
15 18 23 28 38 39 41 42 42 41 37 21 24 20 16 15 20 27 36 42 46 50 54 62 69 80 83
22 27 29 34 38 39 42 41 36 31 30 25 20 31 44 44 44 46 48 51 54 56 57 55 48 45 42
26 33 41 49 46 33 30 33 22 23 35 45 44 44 44 47 47 49 50 52 52 55 56 55 54 51 42
31 29 27 29 31 33 32 34 49 55 58 60 57 54 49 46 48 50 50 55 58 58 58 56 53 45 38
25 25 27 32 35 41 56 63 65 67 68 70 69 66 66 55 47 53 58 62 63 58 55 56 57 52 48
28 30 36 52 63 65 66 66 67 66 68 74 79 77 84 77 61 48 52 57 60 56 58 57 58 57 57
41 54 63 66 67 67 67 64 64 68 72 78 79 80 84 80 76 62 67 55 58 54 55 56 56 60 59
49 60 66 66 63 63 63 65 63 65 79 88 89 92 88 84 84 70 72 81 70 70 72 66 62 59 58
40 44 53 64 65 68 70 70 68 64 66 80 95 96 93 88 84 76 72 72 71 73 77 74 68 65 63
34 37 38 51 63 69 74 73 71 68 67 70 78 87 87 81 83 78 76 76 75 79 79 81 75 65 64
30 31 35 37 42 48 52 58 57 58 60 64 72 82 92 92 79 82 83 78 85 86 82 79 80 64 66

GFSFLT2_850_rhum_072.txt.gz
RH
91 82 83 87 87 84 86 86 92 91 92 88 91 92 99 96 93 92 92 93 94 90 91 94 98 98 99
85 83 82 84 85 89 89 89 88 90 93 98 96 98 99 98 99 100 100 100 96 96 98 98 99 99 100
88 86 83 85 88 91 92 92 90 93 94 99 99 98 97 96 93 97 96 97 95 92 94 95 100 100 98
86 88 87 86 85 86 92 89 90 91 92 95 95 96 96 96 93 91 92 93 98 98 93 95 94 94 95
73 72 70 64 52 42 39 40 42 56 72 78 83 85 86 88 90 94 96 98 99 99 100 99 90 61 36
12 18 21 19 18 18 20 20 42 23 19 22 18 22 24 27 30 35 40 45 47 45 39 32 24 18 24
16 16 20 21 23 25 26 26 37 41 16 15 18 14 14 14 13 14 14 15 15 16 16 17 19 36 80
17 20 22 23 24 26 27 25 38 24 20 23 28 28 33 33 30 33 32 33 32 36 41 54 79 89 92
15 16 17 20 20 28 43 42 67 64 39 48 52 44 43 43 43 42 43 42 44 45 47 57 81 68 55
19 17 17 18 20 24 29 32 47 84 55 58 54 58 56 50 48 47 46 45 46 47 50 52 56 58 62
18 18 19 20 23 26 36 52 58 62 65 62 62 63 76 68 52 53 53 53 52 52 54 57 61 64 57
21 23 25 29 37 49 54 56 57 58 62 63 66 76 84 76 68 71 63 60 62 61 60 58 57 58 60
25 28 33 39 47 54 55 54 55 56 60 64 67 69 73 72 67 67 68 64 66 65 71 71 68 67 62
25 27 27 28 29 34 47 54 55 57 63 68 68 69 69 67 68 64 66 70 66 69 72 68 66 65 64
23 23 25 28 31 32 31 35 44 51 66 78 69 67 62 64 62 59 60 62 65 70 76 70 66 66 66
24 25 26 28 30 30 31 33 35 44 51 64 54 51 52 54 57 60 66 70 72 73 72 74 65 63 68
23 25 26 28 29 30 32 32 32 37 45 50 58 71 83 92 91 84 75 74 76 76 76 84 76 66 72

GFSFLT2_850_rhum_075.txt.gz
RH
90 85 81 81 85 84 80 84 83 86 90 89 86 84 82 82 88 92 93 96 100 100 99 95 94 98 97
82 85 84 81 80 80 86 87 88 88 87 84 91 97 95 93 96 98 98 99 100 100 99 99 99 99 97
90 89 86 82 82 80 80 83 86 89 91 87 96 100 93 97 95 91 90 96 97 99 99 98 97 99 100
89 85 83 79 80 79 84 82 73 78 84 87 92 94 91 92 97 97 95 94 95 95 97 97 94 89 86
70 55 56 45 28 29 24 24 37 23 24 35 44 67 78 82 86 89 91 96 94 95 98 99 93 88 88
10 19 41 26 22 17 17 16 32 44 22 16 17 16 15 14 18 28 40 54 66 77 84 84 75 60 41
12 17 22 19 21 22 23 22 25 27 15 13 25 18 18 14 9 10 10 10 11 13 15 17 18 18 19
11 14 16 16 20 24 23 22 29 54 23 20 37 29 31 36 27 31 29 23 19 16 14 16 20 29 74
13 13 13 13 16 20 25 30 36 71 41 45 44 37 38 40 40 40 40 41 42 43 44 44 64 87 82
14 14 14 14 16 18 20 24 31 65 71 58 46 46 42 50 45 46 46 44 45 46 48 50 51 52 54
16 18 18 19 20 21 25 37 48 53 58 56 53 53 55 50 42 48 47 48 49 49 48 49 51 53 52
18 20 22 24 23 31 41 49 52 53 56 57 56 60 66 66 51 55 52 51 55 55 55 54 54 55 52
17 19 20 22 28 29 32 39 46 50 53 55 57 60 62 64 62 59 58 54 58 60 65 66 64 63 60
17 19 18 18 21 21 22 26 32 38 46 53 57 59 59 60 63 57 58 63 58 62 66 63 62 62 64
18 19 20 20 21 22 23 24 24 26 33 39 39 45 48 48 47 46 50 54 59 67 86 74 63 63 66
20 20 21 22 23 24 25 26 28 32 40 50 56 48 50 51 60 67 72 73 75 81 83 80 68 63 65
24 24 24 25 27 28 30 31 33 37 42 51 61 69 81 79 76 85 79 76 78 80 80 79 79 69 69

GFSFLT2_850_rhum_078.txt.gz
RH
99 92 88 83 83 84 82 85 86 86 84 81 84 82 78 74 84 89 91 98 100 100 99 100 98 97 96
94 88 86 86 86 82 82 86 87 86 86 86 86 94 92 88 87 88 92 93 96 97 98 92 92 93 96
91 86 84 85 82 79 78 79 75 77 82 86 90 94 96 86 93 96 91 90 94 99 100 99 99 99 100
85 80 76 68 62 57 60 42 31 28 30 46 69 82 88 87 84 79 85 94 92 91 94 95 95 92 92
58 48 28 24 20 17 15 12 14 13 23 24 18 24 28 42 68 80 85 79 80 90 95 95 97 96 96
9 11 18 21 18 16 13 13 16 23 20 19 14 16 18 16 13 11 15 29 54 77 88 94 96 96 97
9 14 19 15 16 14 15 16 17 16 18 14 14 20 14 15 13 15 12 12 12 12 14 18 25 30 30
10 13 14 14 16 13 15 17 21 24 26 20 20 23 27 29 28 33 32 32 28 25 20 16 17 18 21
11 11 11 12 12 12 11 15 18 35 30 40 34 33 33 35 36 35 37 38 39 40 42 43 42 53 74
11 12 13 13 12 12 14 16 18 34 47 46 40 39 37 36 40 41 42 41 40 42 43 45 48 49 49
13 14 15 15 16 18 20 25 36 42 43 45 45 43 41 38 38 46 45 46 49 50 49 48 48 48 44
14 14 14 16 17 24 27 32 35 39 45 47 46 49 52 46 40 46 49 51 51 52 54 55 56 57 57
12 12 13 15 17 18 18 18 19 29 40 46 48 51 54 56 50 44 42 41 48 54 59 56 57 62 62
16 14 14 14 16 17 17 18 16 17 19 23 30 41 47 49 49 40 42 47 45 50 55 52 54 56 58
19 17 17 17 17 18 19 21 20 20 23 26 30 36 38 39 41 44 54 62 70 70 73 64 62 63 61
25 23 22 21 21 22 23 24 26 28 31 35 40 45 53 55 65 69 70 73 78 81 83 84 70 66 67
29 30 30 29 28 29 30 32 34 38 42 46 52 60 75 78 69 79 74 76 79 78 82 81 80 72 71

GFSFLT2_850_rhum_081.txt.gz
RH
99 100 96 91 84 85 83 77 85 87 87 84 80 76 78 77 81 90 99 99 96 95 100 100 100 98 100
100 100 94 88 90 88 82 80 77 79 82 89 87 82 81 77 85 83 81 90 98 100 99 99 100 100 96
96 95 91 91 88 82 77 76 75 69 67 73 77 81 88 89 81 82 85 83 85 94 94 98 99 98 93
90 92 83 77 65 54 50 39 30 20 18 17 19 34 54 73 85 83 84 81 83 85 90 94 96 98 99
73 48 29 24 22 17 14 15 11 11 20 21 18 15 12 14 26 57 78 84 85 80 82 84 88 90 94
7 12 12 18 20 16 13 13 14 18 20 12 11 12 14 13 11 9 10 13 37 76 78 80 87 95 97
8 12 15 16 16 13 13 12 12 14 18 12 13 16 16 16 17 19 16 11 9 10 11 15 25 37 49
8 10 11 10 11 11 13 16 16 20 23 17 20 25 28 28 29 30 31 29 28 23 21 16 13 13 14
8 8 8 8 8 10 10 13 15 20 24 33 31 32 32 32 34 34 36 37 37 37 36 36 40 38 37
11 12 10 10 11 12 13 14 16 23 36 36 34 36 36 36 39 38 39 38 39 40 40 41 44 43 44
13 12 12 13 15 16 17 19 26 34 37 39 38 39 39 38 41 40 42 47 46 47 46 47 48 48 47
16 12 11 11 14 17 19 22 23 26 34 36 38 40 41 36 36 39 44 48 47 47 49 50 52 52 52
15 13 13 14 14 14 15 16 16 17 19 22 27 34 38 35 33 30 32 36 38 51 52 49 49 53 54
22 19 17 15 16 15 16 15 15 18 19 19 20 24 30 30 32 33 40 45 48 59 56 53 54 56 54
25 24 22 20 19 19 19 20 21 22 25 28 29 32 36 40 43 48 57 61 69 68 66 60 63 66 65
29 27 26 26 25 24 25 26 27 29 32 34 38 43 49 51 59 62 68 67 72 74 77 74 58 63 65
29 30 30 32 32 32 33 34 35 38 41 44 49 55 63 66 68 77 66 70 71 71 74 74 64 56 58

GFSFLT2_850_rhum_084.txt.gz
RH
100 99 98 99 98 88 85 84 80 82 88 85 81 77 71 80 77 92 98 100 90 80 92 98 100 99 100
100 99 99 99 97 91 88 78 77 74 72 73 74 78 70 76 84 81 88 100 94 100 100 100 100 100 100
99 100 99 96 92 88 83 77 70 65 48 50 60 65 68 78 82 81 82 81 95 99 97 100 100 100 100
95 96 85 84 80 73 58 48 30 21 16 15 16 16 19 41 56 80 78 77 79 81 87 89 91 92 91
85 72 56 40 30 24 20 17 14 14 13 17 19 15 12 11 12 21 57 74 78 74 78 81 84 88 90
36 30 23 17 20 17 14 12 11 14 20 14 12 12 13 13 10 7 8 9 26 59 78 75 72 74 76
10 10 14 17 15 12 11 12 12 11 13 15 12 14 17 17 15 18 14 9 8 8 9 17 49 68 73
9 11 13 13 11 11 12 12 13 14 16 15 17 23 26 28 26 26 27 27 26 22 17 13 10 9 9
8 8 8 8 8 10 10 10 10 15 20 24 28 32 31 32 34 33 32 32 32 32 32 32 32 31 31
13 12 12 12 10 11 11 12 12 15 25 34 33 34 34 35 39 37 36 34 36 36 35 36 37 36 38
16 16 15 14 15 15 14 15 18 24 28 34 34 36 37 37 37 37 39 40 42 41 40 42 43 43 41
20 17 13 12 13 13 14 17 18 19 19 20 26 32 32 30 34 35 42 41 40 41 44 45 45 45 45
20 17 16 14 14 14 14 14 13 14 14 14 15 16 20 21 24 26 30 35 34 36 45 45 43 47 49
23 24 22 22 19 18 16 16 16 17 18 18 18 20 23 25 28 32 39 44 47 51 48 51 54 55 55
27 27 29 28 25 22 21 20 21 22 24 26 28 30 33 36 38 42 50 55 64 68 65 57 61 67 67
28 31 33 31 28 27 26 26 26 28 30 32 34 37 42 44 49 54 57 59 65 66 70 66 50 55 59
24 28 30 31 31 32 33 34 36 36 38 40 43 48 53 57 59 62 58 67 67 69 75 72 59 45 55

GFSFLT2_850_rhum_087.txt.gz
RH
100 100 100 99 98 99 96 86 80 73 72 82 81 75 67 70 77 90 97 99 96 76 68 71 96 96 93
100 100 100 99 98 100 94 88 84 74 68 68 62 54 60 66 82 81 93 99 99 99 100 95 100 98 99
99 100 99 99 100 99 94 87 78 69 62 44 37 28 39 60 72 81 81 87 93 99 99 100 100 99 100
98 98 98 100 91 91 83 73 48 29 19 17 14 12 13 20 38 59 80 76 80 81 100 100 99 98 99
100 98 90 75 66 56 36 23 17 14 12 14 18 16 14 12 11 12 32 73 71 77 80 83 89 91 92
92 81 59 40 30 22 22 17 14 13 14 17 14 12 12 12 10 8 8 9 33 65 73 71 80 80 80
17 20 23 19 21 19 16 14 12 12 13 15 15 14 14 13 12 14 11 8 7 7 9 24 60 72 67
11 12 15 15 17 14 13 12 13 14 16 19 15 17 19 21 20 21 24 23 21 16 12 9 7 6 7
9 9 9 9 8 9 9 10 10 13 19 21 23 26 27 28 27 26 26 28 28 27 28 28 27 26 26
14 13 12 12 9 10 10 11 11 12 15 24 31 32 30 30 32 33 32 30 30 30 31 32 31 31 32
18 18 18 16 15 14 14 14 14 17 24 30 29 33 34 33 33 34 34 35 35 34 34 35 36 36 35
21 21 18 15 12 12 12 13 14 15 14 17 20 23 28 30 35 31 32 35 36 34 32 34 36 38 39
23 20 19 19 17 17 15 14 12 12 12 12 13 14 15 17 21 26 30 31 30 30 31 32 33 37 37
24 23 24 24 25 24 23 21 19 16 16 16 18 18 20 23 26 30 35 38 41 41 40 42 47 50 49
26 26 26 28 29 36 29 25 24 21 21 22 24 27 30 32 34 38 45 48 54 53 50 48 55 59 56
25 28 28 30 31 29 29 28 28 27 27 28 30 32 36 38 42 45 52 56 61 59 59 51 40 54 57
21 21 26 29 33 33 32 32 33 34 35 36 37 40 44 49 50 52 56 64 62 68 74 68 46 39 44

GFSFLT2_850_rhum_090.txt.gz
RH
96 96 99 100 100 100 96 100 95 84 73 72 75 78 70 64 69 74 90 99 99 94 74 64 70 91 94
94 100 100 100 100 97 98 100 92 88 75 70 62 57 56 57 65 70 88 98 96 96 99 96 86 95 94
98 100 100 100 99 99 100 100 92 81 73 62 36 20 22 42 54 72 80 90 93 97 100 99 98 99 100
99 100 100 100 99 100 98 94 86 71 41 24 18 13 13 14 16 38 71 77 88 88 98 100 100 100 100
100 100 98 99 98 82 84 70 44 27 17 16 16 20 18 14 10 10 19 62 73 78 80 94 98 99 100
100 100 98 89 59 51 37 26 22 14 12 16 20 16 14 13 11 8 8 10 38 67 70 79 80 83 86
80 50 44 39 28 24 20 18 16 15 13 13 16 18 17 16 12 14 13 8 7 8 22 48 62 64 77
12 13 14 14 15 16 15 13 13 14 15 16 17 16 19 20 20 22 24 21 17 10 7 7 7 7 15
11 12 10 10 9 9 11 10 10 10 14 18 18 22 26 28 28 28 26 25 25 25 24 23 22 21 20
14 11 10 11 9 9 10 10 9 9 10 15 22 30 30 30 32 33 30 30 27 28 29 28 26 27 27
18 19 19 19 18 17 15 13 12 11 14 20 24 25 30 32 30 31 33 31 30 28 29 28 30 30 31
20 22 22 20 16 15 15 14 12 12 11 12 13 15 18 22 29 27 27 27 27 27 28 27 27 29 30
20 22 20 17 18 18 17 16 16 20 43 34 12 12 13 14 16 20 21 23 23 25 26 27 28 30 31
21 24 22 22 22 23 24 24 28 22 19 18 18 18 19 20 22 24 27 30 34 35 35 35 38 40 41
22 24 25 25 26 28 29 33 28 25 23 22 24 25 26 29 30 34 37 39 42 43 42 41 48 50 48
23 23 25 27 28 30 38 31 29 28 28 27 28 30 32 34 37 40 46 50 55 54 53 49 43 55 54
19 22 24 24 27 29 32 36 34 32 34 34 36 38 39 43 45 47 50 57 60 64 66 63 52 44 46

GFSFLT2_850_rhum_093.txt.gz
RH
99 97 90 95 98 100 100 100 99 99 94 80 66 66 66 60 63 75 86 81 99 100 65 52 56 55 76
100 100 97 97 100 100 100 99 100 99 94 82 68 59 59 49 50 61 82 82 98 100 98 82 75 78 82
97 95 94 100 100 100 99 99 99 99 93 81 64 33 19 18 29 51 78 89 93 99 97 99 100 100 99
98 97 99 100 100 100 100 99 100 98 88 66 30 16 13 12 12 21 57 82 95 96 100 100 97 99 100
98 100 100 99 99 100 100 94 91 81 42 25 19 17 18 15 12 11 13 52 78 86 95 100 100 100 100
98 99 99 99 100 92 58 58 36 20 18 17 18 20 16 14 12 10 9 11 44 72 79 81 94 98 100
97 99 96 84 61 52 30 22 20 18 15 14 14 15 18 18 13 13 12 8 9 17 56 66 75 78 79
19 20 22 27 21 20 21 14 13 13 13 15 15 15 17 20 21 21 22 20 15 8 7 9 16 36 49
12 11 12 15 14 14 12 11 10 10 13 17 18 19 20 24 26 26 26 26 26 26 25 20 15 11 8
13 10 9 10 9 9 10 10 9 10 11 16 16 24 27 28 29 29 31 29 30 30 29 27 26 25 26
20 19 19 19 19 18 16 14 12 11 13 16 22 24 24 26 28 29 31 31 29 29 29 30 28 29 29
21 22 23 24 23 20 18 18 15 17 17 22 18 15 16 16 19 23 27 28 28 27 28 28 26 26 28
18 22 24 22 19 21 22 20 22 24 30 49 46 21 15 14 14 16 19 22 22 23 24 25 26 26 28
19 21 24 22 22 24 25 26 30 34 30 25 21 21 21 21 22 23 24 25 27 29 30 31 32 32 33
21 22 24 25 24 26 28 30 43 35 30 29 28 28 28 29 29 31 32 33 35 35 35 35 39 40 40
24 26 24 25 27 28 28 31 39 34 34 34 35 34 34 35 37 39 41 42 44 44 44 42 42 47 45
21 20 25 25 25 26 27 30 33 39 39 34 38 44 39 41 43 44 48 60 53 53 55 54 49 50 54

GFSFLT2_850_rhum_096.txt.gz
RH
99 91 93 93 97 97 100 100 100 100 96 97 90 73 65 63 57 64 77 88 77 93 78 54 49 53 66
100 99 99 100 99 96 99 100 100 99 99 97 90 73 61 53 48 52 66 87 90 98 95 83 74 65 60
99 96 96 95 96 99 100 100 99 99 99 97 88 65 29 17 16 23 64 84 89 99 99 92 97 88 81
100 98 97 98 100 100 100 99 99 99 98 96 78 30 14 12 11 12 32 77 87 95 100 100 99 99 99
99 99 99 100 99 99 100 100 99 95 90 64 27 17 15 14 12 11 11 38 80 85 100 100 100 100 99
95 96 99 99 99 99 99 92 82 53 29 19 18 16 16 15 12 10 8 9 40 79 86 99 100 100 100
94 97 100 99 99 97 75 54 44 25 18 15 12 14 16 15 13 12 10 8 9 28 70 79 83 93 98
83 93 86 69 59 52 39 27 23 16 15 15 15 16 15 16 19 18 17 15 9 7 9 36 58 71 77
13 12 14 16 20 21 19 19 18 15 14 16 16 17 18 20 23 23 25 23 23 20 13 9 7 8 13
13 13 13 12 12 12 13 14 14 12 12 16 16 20 24 26 27 28 30 28 29 28 25 24 22 22 21
21 18 15 15 16 14 15 15 13 12 14 16 19 19 21 24 26 27 30 32 32 31 29 30 29 27 27
23 21 21 22 23 23 21 19 17 16 17 24 30 28 18 16 17 18 24 28 31 31 29 28 29 28 28
26 22 24 24 24 24 23 22 20 28 34 42 55 49 32 20 17 16 17 20 22 24 25 26 26 25 26
22 20 22 25 24 22 25 26 28 34 41 38 30 26 24 23 23 23 24 24 25 27 27 29 30 31 31
22 22 21 24 25 24 25 28 30 37 44 35 35 34 32 32 32 31 31 31 32 32 33 34 35 36 36
23 22 22 23 25 26 26 28 30 34 42 39 40 40 40 45 47 38 38 40 40 41 42 42 41 44 44
23 23 23 25 25 24 25 27 28 30 36 39 42 38 41 55 65 64 55 46 48 68 63 56 49 49 52

GFSFLT2_850_rhum_099.txt.gz
RH
98 98 98 89 90 93 99 99 100 95 93 97 89 91 85 63 54 49 54 72 81 91 99 80 71 48 45
99 99 98 96 92 94 97 95 99 99 100 97 90 94 83 58 32 24 37 60 78 91 94 97 90 95 68
100 99 97 91 93 91 92 99 99 100 99 96 95 95 73 25 13 11 11 58 78 91 99 94 95 77 68
99 98 94 95 95 95 98 99 100 100 98 99 96 83 32 15 12 13 9 35 77 87 100 100 99 99 100
96 95 94 93 95 99 100 100 100 98 96 90 80 32 18 15 15 11 10 12 64 84 98 100 100 100 98
93 94 96 95 97 99 100 97 99 64 62 46 24 17 17 15 13 12 9 9 21 74 86 99 100 100 99
90 91 97 95 98 97 98 99 85 50 31 19 17 14 17 16 15 14 11 8 9 25 74 85 96 100 100
90 94 97 98 100 90 86 66 41 28 21 15 15 14 16 16 15 16 17 18 10 8 14 56 77 79 83
17 24 40 47 38 36 32 30 23 16 14 14 14 16 17 17 19 21 21 21 21 19 9 7 15 43 60
14 13 13 15 18 18 18 18 15 13 12 16 16 16 21 23 24 24 25 26 25 24 24 23 16 10 8
19 15 13 13 12 11 12 13 14 13 14 15 17 21 22 20 20 21 23 26 28 27 27 26 24 23 23
22 24 21 19 20 20 19 19 18 17 16 16 28 40 32 31 29 24 16 18 22 26 27 26 25 24 24
25 25 23 22 24 25 25 23 22 20 30 43 50 55 45 34 27 22 19 19 18 19 20 21 22 24 23
26 28 26 24 25 25 25 25 24 25 32 42 42 34 32 31 29 28 26 26 25 25 25 25 26 26 27
20 22 23 22 24 25 24 25 28 28 36 45 40 38 39 40 40 37 35 33 32 32 32 32 32 33 33
21 23 23 21 21 24 25 25 27 30 32 40 43 42 45 43 43 49 53 41 39 40 41 41 41 43 42
24 24 24 23 22 22 23 25 27 28 30 32 39 40 45 42 40 47 60 73 66 49 46 61 72 69 67

GFSFLT2_850_rhum_102.txt.gz
RH
88 87 96 99 91 89 94 98 100 88 88 89 96 92 86 86 71 50 43 46 62 73 88 89 64 79 44
100 100 98 97 96 91 90 87 86 97 98 99 95 90 93 89 55 20 13 28 56 77 96 98 93 96 53
100 100 100 98 96 89 87 86 91 96 99 100 88 87 94 78 22 11 9 13 59 87 99 100 98 86 90
90 96 99 97 93 89 89 91 92 98 98 92 90 92 83 28 13 11 11 11 49 88 100 100 95 100 96
92 98 98 94 89 92 93 89 98 98 93 96 83 78 34 19 14 12 10 10 28 78 95 100 100 98 96
100 98 92 92 92 90 90 96 97 97 78 50 51 24 17 16 14 12 10 8 10 58 85 99 100 100 96
96 89 90 90 91 95 91 96 98 91 57 31 21 16 13 15 15 14 13 10 8 13 66 87 100 99 100
76 90 89 91 97 98 99 98 82 68 39 23 16 14 15 16 14 17 19 19 13 7 12 54 84 92 96
22 68 82 89 95 92 69 60 56 34 21 15 13 14 15 16 18 20 20 20 20 16 7 8 32 67 76
17 16 15 16 23 26 27 28 22 16 14 14 12 14 18 23 23 22 23 24 23 22 21 16 8 9 30
18 16 14 15 16 17 18 16 14 13 14 14 14 16 19 17 17 17 20 23 24 25 25 24 22 20 18
19 20 17 14 14 14 13 14 15 16 15 15 17 28 39 48 45 40 26 16 17 22 26 26 25 24 24
20 20 23 22 20 21 21 20 20 19 18 18 50 61 53 38 30 28 26 23 19 17 18 20 22 23 24
20 24 25 25 23 24 26 25 23 23 24 40 43 42 35 35 35 33 32 30 27 25 24 22 21 22 23
22 19 26 29 25 26 26 26 25 26 26 35 45 40 38 41 43 44 46 44 37 34 33 31 30 30 29
27 22 23 27 23 25 27 25 24 27 29 33 43 45 42 45 47 42 43 52 58 47 40 40 40 40 41
33 24 25 28 26 24 25 25 26 26 27 30 34 39 42 44 44 38 42 46 64 72 71 56 46 60 67

GFSFLT2_850_rhum_105.txt.gz
RH
72 79 87 89 94 93 89 94 93 96 90 90 91 97 94 86 82 80 49 27 35 52 67 76 74 65 49
80 92 98 99 100 99 96 92 92 91 87 87 90 95 88 83 90 65 21 10 16 52 89 95 89 90 85
82 86 99 98 98 98 95 89 89 91 92 96 94 89 82 91 80 18 11 10 13 64 92 91 98 89 90
86 87 98 99 99 99 93 91 89 85 92 95 95 87 94 81 27 14 10 10 13 72 96 99 98 93 89
88 92 92 92 98 95 91 88 89 88 89 89 93 94 74 33 15 13 10 9 10 66 90 99 100 100 97
71 84 94 95 96 90 90 88 94 90 93 94 75 57 22 15 12 10 9 8 8 32 81 99 100 99 89
78 96 100 89 91 95 89 88 90 97 90 53 26 18 14 14 12 11 11 10 8 10 54 84 100 100 100
80 75 72 87 91 92 96 96 99 97 77 51 20 16 14 15 12 12 16 18 13 8 11 49 84 99 98
82 69 66 86 97 99 100 99 97 81 53 32 15 15 16 16 14 14 18 19 19 16 7 10 38 82 90
59 20 20 63 91 96 100 92 71 52 25 21 14 15 14 16 18 18 20 21 22 21 19 11 8 26 58
30 19 18 18 18 23 46 37 27 20 15 17 14 14 18 18 16 17 19 21 24 24 24 22 20 12 11
25 23 20 18 17 18 22 24 18 16 16 16 15 16 18 34 38 43 27 17 17 22 26 26 26 25 23
26 24 21 22 19 17 18 16 14 16 17 16 16 32 57 53 40 33 28 27 22 18 18 22 24 24 24
25 27 27 25 22 19 19 19 18 19 19 18 26 56 49 37 36 34 33 32 29 26 22 20 20 22 22
34 29 26 29 29 24 24 26 25 23 23 22 41 46 41 38 40 44 44 47 47 40 34 30 28 26 27
38 31 25 26 30 28 26 27 26 25 25 25 33 43 41 40 44 47 42 42 51 57 53 40 38 37 36
53 39 31 28 35 32 28 28 26 25 26 29 30 39 46 44 44 44 38 40 43 48 64 70 61 45 46

GFSFLT2_850_rhum_108.txt.gz
RH
64 64 72 75 82 90 96 90 81 93 92 95 92 87 80 89 84 81 80 73 28 13 37 61 77 84 68
62 67 78 89 90 95 99 98 94 91 90 90 88 83 92 86 82 83 83 27 12 9 59 94 98 100 85
64 70 77 81 87 97 98 98 96 90 88 87 89 86 88 83 86 86 38 12 11 16 87 90 87 97 100
67 70 74 76 84 94 98 98 93 92 95 87 88 89 88 90 88 56 14 12 10 18 86 97 99 94 100
70 75 72 73 72 83 91 94 92 92 88 86 87 90 93 90 59 15 13 11 9 18 83 100 100 100 96
65 76 71 67 74 85 94 94 93 89 87 87 93 93 81 54 15 12 11 11 8 10 76 93 98 100 100
63 68 72 66 93 98 88 88 87 88 91 95 83 35 20 15 13 13 13 14 7 8 56 80 100 100 100
74 77 78 78 87 88 84 95 96 93 98 96 70 35 17 14 14 13 14 15 14 7 11 50 92 100 100
79 81 80 72 71 85 92 99 99 97 96 85 52 20 15 15 14 14 16 18 18 13 6 11 53 92 98
81 84 87 77 71 90 92 100 100 98 81 76 35 18 15 16 16 17 18 20 20 18 17 9 9 43 85
89 89 76 33 32 81 94 99 98 90 36 37 20 15 15 21 19 20 22 23 22 22 22 21 17 10 26
96 92 49 24 19 30 65 78 80 52 47 20 18 14 14 17 22 32 27 18 18 18 23 25 23 20 18
99 96 42 26 24 23 24 30 34 29 29 19 17 18 17 29 52 47 41 33 30 22 18 21 25 24 23
99 99 47 34 28 28 25 26 27 25 21 19 16 19 31 54 44 34 33 32 33 29 24 21 19 20 21
99 97 55 42 31 30 24 21 19 18 19 19 18 21 56 50 37 38 39 41 45 46 42 34 29 25 23
99 98 70 48 37 36 30 26 25 23 23 22 19 26 47 42 39 43 44 42 41 47 53 52 42 37 35
98 98 95 51 48 44 40 33 31 31 27 26 24 32 39 44 40 44 47 44 40 42 45 57 67 58 44

GFSFLT2_850_rhum_111.txt.gz
RH
74 61 62 63 66 72 80 82 78 79 76 85 88 92 90 84 82 83 84 79 77 38 12 20 67 74 99
65 64 64 61 69 77 82 78 78 83 82 84 88 86 84 82 84 82 82 80 48 12 9 58 85 88 94
75 70 66 70 71 78 78 79 92 96 90 88 88 86 85 84 82 86 85 61 13 10 12 80 88 88 91
86 75 78 80 74 84 83 85 88 91 91 88 89 85 85 86 88 89 67 19 11 8 33 86 88 92 92
98 93 79 79 80 78 83 91 94 91 90 88 91 88 87 91 89 74 28 11 8 7 61 79 91 99 100
94 94 81 85 91 86 91 87 94 86 86 87 89 88 90 90 74 33 12 11 8 7 49 79 81 100 88
90 95 88 91 94 88 85 97 88 86 86 90 92 93 88 45 20 13 12 12 10 6 17 74 97 99 88
100 87 94 79 90 85 94 100 98 95 100 97 90 81 60 27 17 14 12 14 15 7 8 46 81 99 94
95 100 99 90 88 99 100 100 100 98 98 98 90 70 45 22 15 14 12 16 17 15 7 9 52 88 99
100 96 96 87 95 93 88 97 100 100 99 99 84 62 24 16 15 16 15 18 20 19 17 8 10 50 88
97 95 96 91 97 93 89 100 100 99 88 80 80 56 26 16 15 17 20 22 22 22 20 19 12 9 49
100 100 97 93 87 77 73 100 100 100 100 98 40 34 19 14 19 19 21 23 23 21 22 22 20 18 11
99 100 100 100 90 36 42 85 100 100 100 91 62 22 15 15 19 43 45 40 34 26 21 18 23 23 21
100 100 100 98 94 38 32 35 56 54 59 50 39 20 18 17 32 52 42 30 34 33 29 23 21 20 20
99 99 99 98 97 48 34 36 47 40 38 34 27 18 19 22 48 41 31 34 40 45 44 39 32 26 22
99 99 98 98 97 65 46 41 38 37 34 28 24 20 20 44 54 36 34 39 41 40 46 50 51 42 35
99 98 98 98 97 95 95 77 35 31 24 23 23 21 21 44 47 35 40 44 44 41 42 45 50 58 55

GFSFLT2_850_rhum_114.txt.gz
RH
100 98 97 97 87 85 88 94 85 88 85 85 81 87 88 88 90 83 80 79 79 74 47 12 17 64 85
100 100 98 94 92 90 85 98 98 95 88 89 87 88 92 89 85 81 81 81 80 49 11 9 40 73 94
94 99 92 92 92 99 100 100 99 91 89 90 95 91 88 86 86 86 82 81 61 14 9 24 73 90 92
100 100 96 90 94 99 93 97 100 91 92 92 95 95 91 89 90 86 86 69 22 10 8 63 90 98 90
100 97 95 95 92 83 90 97 95 88 94 98 97 93 95 90 89 89 78 42 9 7 8 64 90 93 100
100 99 96 92 91 92 100 93 88 87 90 90 89 91 92 91 92 88 60 13 9 7 8 72 84 94 89
100 100 98 100 92 95 100 92 85 87 92 83 90 91 95 93 92 55 15 13 12 8 7 66 84 97 86
100 96 100 99 99 100 100 99 99 100 99 98 90 92 93 89 54 20 14 13 15 10 6 30 79 96 97
100 99 100 99 97 100 98 96 100 99 100 100 100 94 91 82 52 22 14 12 17 16 7 8 53 82 79
99 99 100 100 100 100 93 91 99 100 98 100 100 98 90 58 31 20 15 14 19 18 16 7 10 51 82
98 100 99 100 100 100 99 100 100 99 99 100 100 100 85 17 19 18 18 18 20 20 19 17 9 9 46
100 99 99 100 100 100 100 99 100 100 100 98 95 97 84 54 20 18 18 22 26 26 24 21 18 12 11
100 99 100 100 100 99 99 100 100 100 100 99 99 95 36 32 16 19 22 26 23 19 17 19 22 20 18
100 100 100 99 99 99 98 98 98 100 100 99 99 98 51 19 18 25 35 36 40 32 30 24 27 21 20
99 99 99 100 99 99 98 97 95 98 100 100 99 93 42 23 20 41 45 33 34 33 38 37 31 24 23
99 99 99 99 99 99 98 96 95 68 74 82 72 69 39 28 24 40 33 32 40 44 46 49 48 41 35
99 99 99 99 98 98 98 97 94 88 81 80 54 47 35 26 29 47 32 35 41 41 43 47 52 54 51

GFSFLT2_850_rhum_117.txt.gz
RH
99 98 95 99 97 99 98 98 92 89 92 91 93 92 83 80 87 84 88 87 82 80 77 65 17 12 58
100 100 100 100 99 100 100 87 88 88 86 97 91 92 88 84 90 89 85 85 84 77 73 16 9 30 76
100 100 100 100 100 99 99 95 96 89 85 96 86 85 91 87 90 87 86 84 82 75 33 10 21 64 82
100 99 100 100 100 100 99 89 94 91 88 89 89 96 99 89 90 88 88 87 79 56 12 9 51 88 93
100 99 100 100 98 96 97 97 100 92 85 92 97 99 99 96 88 92 90 84 72 23 9 9 71 92 99
100 100 99 98 100 99 100 100 99 94 94 86 93 97 93 90 92 97 87 83 52 10 7 10 73 94 96
96 98 100 99 100 100 100 98 93 88 90 94 97 93 85 97 89 95 89 72 16 12 9 9 68 83 92
100 99 96 98 100 100 100 100 100 100 100 100 97 89 89 96 94 98 90 25 14 14 9 8 53 92 100
100 100 100 100 97 100 100 100 100 100 100 100 100 100 94 95 96 92 56 17 14 18 13 7 21 80 92
91 98 100 100 100 96 100 100 100 100 100 100 100 100 100 98 94 82 41 16 15 19 16 9 7 40 73
98 99 99 100 100 100 98 100 100 100 100 100 99 98 96 64 87 65 34 18 18 21 19 16 8 10 36
99 98 100 100 100 100 100 100 100 100 100 100 100 100 98 78 24 44 25 21 21 24 23 23 18 9 12
99 98 100 100 100 100 100 99 99 100 99 97 99 98 100 100 80 21 21 22 26 29 29 25 24 19 14
99 100 99 100 100 99 99 99 99 99 98 99 99 99 85 78 62 22 21 26 29 27 24 25 23 22 21
99 99 99 99 99 99 99 99 99 99 99 99 99 99 100 73 26 23 24 33 30 30 27 27 28 25 22
99 100 99 99 99 99 99 98 98 98 98 98 98 98 98 57 28 26 34 32 34 30 30 31 30 27 25
99 100 100 99 99 99 98 97 97 98 98 98 98 98 98 61 34 31 37 31 33 40 43 45 45 42 37

GFSFLT2_850_rhum_120.txt.gz
RH
100 99 97 99 95 98 98 96 100 98 100 100 87 82 79 76 73 69 75 82 86 82 80 75 75 69 30
99 99 99 98 99 99 100 100 100 100 100 100 100 88 85 80 75 68 74 83 87 82 78 80 74 30 10
100 100 100 98 99 99 99 100 100 100 100 100 100 97 90 83 72 80 82 89 91 83 81 77 59 12 22
94 95 97 97 99 99 98 99 99 100 100 100 99 97 93 83 74 76 85 87 89 84 86 72 22 10 32
89 84 84 82 80 82 99 100 98 100 98 98 98 100 92 88 76 73 81 88 89 86 81 44 10 9 60
100 100 98 100 96 92 98 100 100 96 100 100 100 92 94 93 93 81 84 90 87 84 79 18 8 13 87
98 98 100 99 100 99 100 100 99 100 100 100 98 99 100 100 100 97 91 88 97 83 61 13 8 15 84
94 90 91 98 100 99 100 100 100 100 100 100 99 100 100 100 100 99 100 97 98 80 21 14 8 18 84
96 85 91 100 100 100 99 100 100 99 100 100 100 100 100 100 100 100 98 99 97 39 16 18 10 10 74
78 81 89 99 100 100 100 100 100 100 98 100 100 100 100 100 100 100 100 100 83 20 18 20 9 8 47
96 91 82 80 94 100 100 100 100 99 100 100 100 100 100 99 99 100 100 91 52 17 20 23 14 8 26
99 98 99 95 99 99 100 100 100 100 100 100 99 100 100 99 94 98 98 88 35 18 23 25 20 11 16
98 99 100 98 99 98 99 99 99 99 99 99 99 99 100 100 88 29 95 71 31 24 25 27 25 18 15
99 99 100 99 99 100 99 100 100 99 99 98 98 99 99 99 99 98 45 38 27 27 32 30 27 24 18
97 99 99 99 99 99 99 98 99 99 98 99 99 98 98 97 97 96 43 31 30 34 34 30 28 25 23
99 100 99 100 100 99 99 100 98 97 98 98 98 98 98 96 79 31 32 36 36 34 31 31 30 27 24
100 100 99 98 100 100 100 98 97 97 97 98 98 98 98 97 77 31 40 35 34 30 29 29 28 28 26

GFSFLT2_850_rhum_123.txt.gz
RH
100 99 95 87 87 91 90 86 93 91 100 100 100 99 100 100 97 86 81 84 76 75 67 69 79 80 75
100 100 99 98 95 99 98 95 94 95 98 98 100 100 100 100 100 93 86 83 78 77 73 74 75 72 73
84 87 86 79 74 78 78 83 83 86 97 93 100 100 99 100 100 99 91 85 79 71 66 75 75 75 73
99 99 99 98 98 96 84 75 78 78 86 93 99 100 100 100 100 100 100 95 84 80 76 72 80 79 71
96 93 88 90 96 94 99 98 98 98 92 87 97 100 100 100 100 98 92 100 93 93 83 75 81 72 51
99 100 99 96 88 94 93 96 100 98 94 97 100 99 100 99 100 100 100 100 99 98 87 78 81 74 27
100 99 99 98 99 99 99 100 100 93 100 98 98 99 100 100 100 100 100 99 100 97 91 84 79 71 12
50 73 98 98 99 99 98 98 98 98 100 99 98 98 99 99 100 100 100 100 100 100 98 91 85 36 10
48 47 49 73 86 92 93 98 98 98 99 100 99 100 100 100 100 100 100 100 100 99 100 88 69 18 11
38 43 78 94 99 98 99 100 100 98 98 99 100 100 100 98 100 100 100 100 100 99 100 89 18 16 8
66 90 97 98 95 100 100 100 100 99 99 100 99 100 100 100 100 100 100 99 100 99 100 44 17 20 11
100 98 99 99 100 93 96 98 100 99 100 100 99 99 100 99 99 99 98 98 99 99 79 19 30 23 9
100 100 91 98 99 100 92 98 99 99 100 100 99 99 99 99 99 98 98 97 98 94 25 24 30 20 13
100 99 88 89 95 100 97 96 99 99 100 99 99 100 99 98 98 98 97 97 97 78 33 35 32 26 21
100 100 100 89 90 98 98 97 98 98 96 97 98 98 98 99 100 98 97 96 62 56 36 37 32 30 25
100 100 100 100 94 96 98 98 99 99 96 97 98 98 98 98 98 98 97 58 46 40 42 39 31 29 26
100 100 100 100 96 97 97 97 96 97 97 97 97 96 97 97 97 91 60 43 41 41 44 36 31 29 27

GFSFLT2_850_rhum_126.txt.gz
RH
100 100 99 100 97 82 69 64 61 66 79 84 85 83 89 96 100 100 100 100 100 95 88 91 81 72 63
95 84 72 63 59 55 46 48 53 49 58 62 76 92 100 100 100 100 100 100 100 100 97 92 84 75 69
52 45 49 40 34 30 28 32 40 55 64 73 80 83 95 100 99 100 100 100 100 100 100 96 86 76 75
22 28 44 56 87 92 82 73 75 67 69 71 79 82 87 91 98 100 99 100 100 100 100 99 88 80 81
37 81 91 95 95 98 99 98 98 99 88 74 67 73 73 82 93 99 100 100 100 100 100 100 96 87 86
49 66 80 97 99 95 92 94 98 93 93 91 95 85 79 75 82 95 97 100 100 100 100 100 100 94 89
49 45 62 59 80 87 80 89 89 85 86 89 89 90 88 99 98 98 98 100 100 100 100 99 100 99 97
36 46 51 56 68 88 99 99 97 94 77 91 95 77 87 82 96 97 100 99 100 100 100 98 100 100 100
38 56 73 96 100 100 96 98 98 98 98 99 98 96 99 91 98 99 98 98 100 100 100 100 100 100 100
30 42 60 79 98 97 100 100 100 100 97 100 98 100 99 99 98 92 98 100 100 100 100 99 100 100 82
48 48 53 96 96 100 99 100 100 100 93 100 99 100 100 98 99 97 98 100 99 99 99 99 99 97 27
75 86 90 82 84 90 98 99 100 100 96 100 100 100 99 100 100 98 99 99 98 98 98 98 98 32 28
98 100 100 99 92 89 90 94 89 92 93 100 100 100 99 98 100 98 98 97 98 98 98 98 40 34 32
100 100 100 100 97 94 96 90 86 93 96 100 100 99 98 100 100 98 97 99 96 97 96 46 36 38 30
100 100 100 100 100 98 98 98 98 94 91 96 96 100 100 100 100 97 97 98 98 97 86 48 42 39 36
100 100 100 99 100 100 100 100 98 92 91 96 98 100 100 100 96 99 99 97 97 96 64 56 40 40 37
100 100 100 100 100 100 100 100 94 96 92 96 100 100 100 99 96 98 98 82 71 88 62 49 37 35 36